sat.trackr.live / text

‹ back to catalog

STARLINK-35635

NORAD 66161 · 2025-240R

PAYLOAD ACTIVE UNKNOWN

§ Identity

Operator
Country
US
Launch date
2025-10-25
Launch site
AFWTR
Launch vehicle
Mass (kg)
RCS (m²)

Purposes: comms

External: N2YO · Heavens-Above · Gunter

§ Orbital elements

Epoch: 2026-05-25T00:27:15.037056Z

Period
94.10 min
Inclination
53.1579°
Eccentricity
0.0000938
Mean motion
15.30231873 rev/d
Perigee alt
474.5 km
Apogee alt
475.8 km
Semi-major
6,853.3 km
B*
8.8098e-4
RAAN
68.3545°
Arg perigee
104.0125°
Mean anomaly
256.0980°
Rev number
3,367

§ Raw data

STARLINK-356351 66161U 25240R   26145.01892404  .00025850  00000+0  88098-3 0  99942 66161  53.1579  68.3545 0000938 104.0125 256.0980 15.30231873 33678

JSON: /api/v1/satellites/66161 · /tle

For live sub-satellite position, see the globe view (requires WebGL).

§ Visibility from observer

Set your observer location to see the next 7 days of passes ≥ 10°. The values pass through the URL so the page stays shareable.

No JS? Fill the form by hand. The geolocation button needs JavaScript.